Regional Weather Roundup
Issued by NWS

Home | Current Version | Previous Version | Text Only | Print | Product List | Glossary Off
Versions: 1 2 3 4 5 6 7 8 9 10 11 12 13 14 15 16 17 18 19 20 21 22 23 24 25 26 27 28 29 30 31 32 33 34 35 36 37 38 39 40 41 42 43 44 45 46 47 48 49 50

000
ASUS43 KFSD 081110
RWRSD

WEATHER ROUNDUP FOR SOUTH DAKOTA
NATIONAL WEATHER SERVICE SIOUX FALLS SD
500 AM CST THU DEC 08 2016

NOTE: "FAIR" INDICATES FEW OR NO CLOUDS BELOW 12,000 FEET WITH NO
SIGNIFICANT WEATHER AND/OR OBSTRUCTIONS TO VISIBILITY.


SDZ001>005-009-010-012>017-081200-
NORTHWEST AND NORTH CENTRAL SOUTH DAKOTA

CITY           SKY/WX    TMP DP  RH WIND       PRES   REMARKS
BUFFALO          N/A     -5 -10  79 NW12      30.44S WCI -23
FAITH            N/A     -3  -7  82 NW14      30.54R WCI -22
MOBRIDGE       CLOUDY     6  -3  66 NW18G25   30.52R WCI -13
$$

SDZ012>016-024>037-041>051-057-063-072>074-081200-
SOUTHWEST AND SOUTH CENTRAL SOUTH DAKOTA

CITY           SKY/WX    TMP DP  RH WIND       PRES   REMARKS
RAPID CTY ARPT CLEAR     -3  -9  75 NW8       30.52S WCI -18
PIERRE         CLOUDY     7   1  76 NW25      30.55S WCI -15
CUSTER         CLEAR     -2 -14  56 NW3       30.28R
ELLSWORTH AFB  CLEAR      1  -7  70 N12       30.50R WCI -16
PHILIP         CLEAR      0  -6  76 NW7       30.60R WCI -13
PINE RIDGE     CLOUDY   -16 -19  87 E5        30.53S WCI -29
SPEARFISH      FAIR      -4 -11  71 W6        30.47S WCI -16
WINNER         CLOUDY     8  -1  66 NW18G29   30.56R WCI -11
$$

SDZ004>011-016>023-039-040-081200-
NORTHEAST SOUTH DAKOTA

CITY           SKY/WX    TMP DP  RH WIND       PRES   REMARKS
ABERDEEN       CLOUDY     9   2  73 NW20G30   30.48S WCI -10
WATERTOWN      LGT SNOW   8   3  80 NW17G26   30.37R WCI -10
BROOKINGS      FLURRIES   7   2  80 NW18G25   30.38R WCI -12
SISSETON         N/A     11   6  81 NW25G32   30.38R WCI -10
$$

SDZ017-020-022-023-036>040-048>070-081200-
SOUTHEAST SOUTH DAKOTA

CITY           SKY/WX    TMP DP  RH WIND       PRES   REMARKS
SIOUX FALLS    CLEAR      8   3  80 NW21G31   30.42R WCI -12
HURON          PTCLDY     7   2  80 NW22G29   30.51R WCI -14
CHAMBERLAIN    CLEAR      9   4  78 NW20G25   30.55S WCI -10
MITCHELL       PTCLDY     8   2  76 NW20      30.53R WCI -11
YANKTON        CLEAR    N/A N/A N/A NW24G30   30.50R
$$

ABBREVIATIONS USED IN REMARKS
   TC - TEMPERATURE IN CELSIUS
  WCI - WIND CHILL INDEX
   HX - HEAT INDEX
  VSB - VISIBILITY





USA.gov is the U.S. government's official web portal to all federal, state and local government web resources and services.